owner,sensor,date,latitude,longitude,vertical_datum,wind_speed,wind_to_direction,wind_speed_of_gust,qcFlag 
TABS,ioos:station:wmo:42046:1,2009-04-01T00:00:00Z,27.8903,-94.0367,4.0,8.251842219,4.169494961,10.44,'11111222,11111222,11111222' 
TABS,ioos:station:wmo:42046:1,2009-04-01T00:30:00Z,27.8903,-94.0367,4.0,8.562575547,358.594454,11.04,'11111222,11111222,11111222' 
TABS,ioos:station:wmo:42046:1,2009-04-01T01:00:00Z,27.8903,-94.0367,4.0,8.239302155,6.270852326,10.53,'11111222,11111222,11111222' 
TABS,ioos:station:wmo:42046:1,2009-04-01T01:30:00Z,27.8903,-94.0367,4.0,8.260568988,11.6633679,10.24,'11111222,11111222,11111222' 
TABS,ioos:station:wmo:42046:1,2009-04-01T02:00:00Z,27.8903,-94.0367,4.0,8.093732143,11.18474767,10.58,'11111222,11111222,11111222' 
TABS,ioos:station:wmo:42046:1,2009-04-01T02:30:00Z,27.8903,-94.0367,4.0,8.473045497,19.43977891,10.56,'11111222,11111222,11111222' 
TABS,ioos:station:wmo:42046:1,2009-04-01T03:00:00Z,27.8903,-94.0367,4.0,7.532994093,19.0600637,10.18,'11111222,11111222,11111222' 
TABS,ioos:station:wmo:42046:1,2009-04-01T03:30:00Z,27.8903,-94.0367,4.0,7.093912884,22.37108593,9.37,'11111222,11111222,11111222' 
TABS,ioos:station:wmo:42046:1,2009-04-01T04:00:00Z,27.8903,-94.0367,4.0,7.361555542,28.65366338,9.08,'11111222,11111222,11111222' 
TABS,ioos:station:wmo:42046:1,2009-04-01T04:30:00Z,27.8903,-94.0367,4.0,6.843865867,34.94371865,8.71,'11111222,11111222,11111222' 
TABS,ioos:station:wmo:42046:1,2009-04-01T05:00:00Z,27.8903,-94.0367,4.0,6.537438336,38.72794459,8.5,'11111222,11111222,11111222' 
TABS,ioos:station:wmo:42046:1,2009-04-01T05:30:00Z,27.8903,-94.0367,4.0,7.413568641,28.25860401,9.46,'11111222,11111222,11111222' 
TABS,ioos:station:wmo:42046:1,2009-04-01T06:00:00Z,27.8903,-94.0367,4.0,7.974440419,32.97237465,9.66,'11111222,11111222,11111222' 
TABS,ioos:station:wmo:42046:1,2009-04-01T06:30:00Z,27.8903,-94.0367,4.0,8.188998718,29.31936119,10.32,'11111222,11111222,11111222' 
TABS,ioos:station:wmo:42046:1,2009-04-01T07:00:00Z,27.8903,-94.0367,4.0,8.682424777,28.77871391,10.82,'11111222,11111222,11111222' 
TABS,ioos:station:wmo:42046:1,2009-04-01T07:30:00Z,27.8903,-94.0367,4.0,8.535537476,37.9571074,10.93,'11111222,11111222,11111222' 
TABS,ioos:station:wmo:42046:1,2009-04-01T08:00:00Z,27.8903,-94.0367,4.0,8.816013838,38.59860859,10.96,'11111222,11111222,11111222' 
TABS,ioos:station:wmo:42046:1,2009-04-01T08:30:00Z,27.8903,-94.0367,4.0,9.091979982,49.95204233,11.73,'11111222,11111222,11111222' 
TABS,ioos:station:wmo:42046:1,2009-04-01T09:00:00Z,27.8903,-94.0367,4.0,8.740205947,49.64013172,11.25,'11111222,11111222,11111222' 
TABS,ioos:station:wmo:42046:1,2009-04-01T09:30:00Z,27.8903,-94.0367,4.0,9.212974547,53.96314532,11.64,'11111222,11111222,11111222' 
TABS,ioos:station:wmo:42046:1,2009-04-01T10:00:00Z,27.8903,-94.0367,4.0,8.534102179,57.78077408,11.26,'11111222,11111222,11111222' 
TABS,ioos:station:wmo:42046:1,2009-04-01T10:30:00Z,27.8903,-94.0367,4.0,8.690368232,61.3997099,10.87,'11111222,11111222,11111222' 
TABS,ioos:station:wmo:42046:1,2009-04-01T11:00:00Z,27.8903,-94.0367,4.0,9.545952022,62.14605801,11.67,'11111222,11111222,11111222' 
TABS,ioos:station:wmo:42046:1,2009-04-01T11:30:00Z,27.8903,-94.0367,4.0,8.339358489,67.06266495,10.55,'11111222,11111222,11111222' 
TABS,ioos:station:wmo:42046:1,2009-04-01T12:00:00Z,27.8903,-94.0367,4.0,8.878203647,64.30045326,11.72,'11111222,11111222,11111222' 
TABS,ioos:station:wmo:42046:1,2009-04-01T12:30:00Z,27.8903,-94.0367,4.0,9.185058519,66.44883671,11.72,'11111222,11111222,11111222' 
TABS,ioos:station:wmo:42046:1,2009-04-01T13:00:00Z,27.8903,-94.0367,4.0,9.546271523,76.18171969,11.81,'11111222,11111222,11111222' 
TABS,ioos:station:wmo:42046:1,2009-04-01T13:30:00Z,27.8903,-94.0367,4.0,8.823474372,78.29488824,10.83,'11111222,11111222,11111222' 
TABS,ioos:station:wmo:42046:1,2009-04-01T14:00:00Z,27.8903,-94.0367,4.0,8.339958033,74.84692795,10.41,'11111222,11111222,11111222' 
TABS,ioos:station:wmo:42046:1,2009-04-01T14:30:00Z,27.8903,-94.0367,4.0,7.749903225,81.76494176,10.05,'11111222,11111222,11111222' 
TABS,ioos:station:wmo:42046:1,2009-04-01T15:00:00Z,27.8903,-94.0367,4.0,7.099577452,81.41296639,9.22,'11111222,11111222,11111222' 
TABS,ioos:station:wmo:42046:1,2009-04-01T15:30:00Z,27.8903,-94.0367,4.0,7.389533138,84.87536033,9.04,'11111222,11111222,11111222' 
TABS,ioos:station:wmo:42046:1,2009-04-01T16:00:00Z,27.8903,-94.0367,4.0,7.626067138,94.7390942,9.5,'11111222,11111222,11111222' 
TABS,ioos:station:wmo:42046:1,2009-04-01T16:30:00Z,27.8903,-94.0367,4.0,7.14463435,102.6944664,9.22,'11111222,11111222,11111222' 
TABS,ioos:station:wmo:42046:1,2009-04-01T17:00:00Z,27.8903,-94.0367,4.0,6.207737108,99.644804,8.05,'11111222,11111222,11111222' 
TABS,ioos:station:wmo:42046:1,2009-04-01T17:30:00Z,27.8903,-94.0367,4.0,6.036828638,108.6454197,7.82,'11111222,11111222,11111222' 
TABS,ioos:station:wmo:42046:1,2009-04-01T18:00:00Z,27.8903,-94.0367,4.0,5.534799003,104.4383473,7.31,'11111222,11111222,11111222' 
TABS,ioos:station:wmo:42046:1,2009-04-01T18:30:00Z,27.8903,-94.0367,4.0,6.369372026,111.6514413,7.7,'11111222,11111222,11111222' 
TABS,ioos:station:wmo:42046:1,2009-04-01T19:00:00Z,27.8903,-94.0367,4.0,6.936749959,115.9005,8.77,'11111222,11111222,11111222' 
TABS,ioos:station:wmo:42046:1,2009-04-01T19:30:00Z,27.8903,-94.0367,4.0,6.852452116,118.8844107,9.11,'11111222,11111222,11111222' 
TABS,ioos:station:wmo:42046:1,2009-04-01T20:00:00Z,27.8903,-94.0367,4.0,6.404568682,107.4451301,8.53,'11111222,11111222,11111222' 
TABS,ioos:station:wmo:42046:1,2009-04-01T20:30:00Z,27.8903,-94.0367,4.0,7.337063445,114.9936677,9.12,'11111222,11111222,11111222' 
TABS,ioos:station:wmo:42046:1,2009-04-01T21:00:00Z,27.8903,-94.0367,4.0,7.42596795,121.2287482,9.09,'11111222,11111222,11111222' 
TABS,ioos:station:wmo:42046:1,2009-04-01T21:30:00Z,27.8903,-94.0367,4.0,7.92949557,127.9830502,9.85,'11111222,11111222,11111222' 
TABS,ioos:station:wmo:42046:1,2009-04-01T22:00:00Z,27.8903,-94.0367,4.0,7.894536085,127.5379497,9.85,'11111222,11111222,11111222' 
TABS,ioos:station:wmo:42046:1,2009-04-01T22:30:00Z,27.8903,-94.0367,4.0,8.011054862,127.8000426,9.75,'11111222,11111222,11111222' 
TABS,ioos:station:wmo:42046:1,2009-04-01T23:00:00Z,27.8903,-94.0367,4.0,7.785403008,129.0049429,10.33,'11111222,11111222,11111222' 
TABS,ioos:station:wmo:42046:1,2009-04-01T23:30:00Z,27.8903,-94.0367,4.0,7.71998057,132.8481465,10.12,'11111222,11111222,11111222' 
TABS,ioos:station:wmo:42046:1,2009-04-02T00:00:00Z,27.8903,-94.0367,4.0,7.260668013,138.4060884,9.63,'11111222,11111222,11111222' 
TABS,ioos:station:wmo:42046:1,2009-04-02T00:30:00Z,27.8903,-94.0367,4.0,7.349666659,139.6357683,9.66,'11111222,11111222,11111222' 
TABS,ioos:station:wmo:42046:1,2009-04-02T01:00:00Z,27.8903,-94.0367,4.0,8.446046412,142.9404544,10.3,'11111222,11111222,11111222' 
TABS,ioos:station:wmo:42046:1,2009-04-02T01:30:00Z,27.8903,-94.0367,4.0,7.976421503,148.9010176,10.1,'11111222,11111222,11111222' 
TABS,ioos:station:wmo:42046:1,2009-04-02T02:00:00Z,27.8903,-94.0367,4.0,7.473586823,152.6809237,9.99,'11111222,11111222,11111222' 
TABS,ioos:station:wmo:42046:1,2009-04-02T02:30:00Z,27.8903,-94.0367,4.0,6.110523709,148.8596389,8.73,'11111222,11111222,11111222' 
TABS,ioos:station:wmo:42046:1,2009-04-02T03:00:00Z,27.8903,-94.0367,4.0,5.407864643,144.6350441,6.75,'11111222,11111222,11111222' 
TABS,ioos:station:wmo:42046:1,2009-04-02T03:30:00Z,27.8903,-94.0367,4.0,5.54148897,146.109487,6.87,'11111222,11111222,11111222' 
TABS,ioos:station:wmo:42046:1,2009-04-02T04:00:00Z,27.8903,-94.0367,4.0,6.179449814,146.6188129,8.04,'11111222,11111222,11111222' 
TABS,ioos:station:wmo:42046:1,2009-04-02T04:30:00Z,27.8903,-94.0367,4.0,5.895905359,152.0878484,7.33,'11111222,11111222,11111222' 
TABS,ioos:station:wmo:42046:1,2009-04-02T05:00:00Z,27.8903,-94.0367,4.0,4.558267215,152.1422124,6.13,'11111222,11111222,11111222' 
TABS,ioos:station:wmo:42046:1,2009-04-02T05:30:00Z,27.8903,-94.0367,4.0,0.667308025,250.7505191,1.82,'11111222,11111222,11111222' 
TABS,ioos:station:wmo:42046:1,2009-04-02T06:00:00Z,27.8903,-94.0367,4.0,1.157670074,199.6872806,2.25,'11111222,11111222,11111222' 
TABS,ioos:station:wmo:42046:1,2009-04-02T06:30:00Z,27.8903,-94.0367,4.0,1.647573974,198.7650299,2.58,'11111222,11111222,11111222' 
TABS,ioos:station:wmo:42046:1,2009-04-02T07:00:00Z,27.8903,-94.0367,4.0,0.799312204,46.52045042,1.88,'11111222,11111222,11111222' 
TABS,ioos:station:wmo:42046:1,2009-04-02T07:30:00Z,27.8903,-94.0367,4.0,2.708357436,127.8010989,4.01,'11111222,11111222,11111222' 
TABS,ioos:station:wmo:42046:1,2009-04-02T08:00:00Z,27.8903,-94.0367,4.0,0.411096096,318.9450718,1.35,'11111222,11111222,11111222' 
TABS,ioos:station:wmo:42046:1,2009-04-02T08:30:00Z,27.8903,-94.0367,4.0,6.02127063,123.6904097,7.8,'11111222,11111222,11111222' 
TABS,ioos:station:wmo:42046:1,2009-04-02T09:00:00Z,27.8903,-94.0367,4.0,5.88551612,123.2854048,7.77,'11111222,11111222,11111222' 
TABS,ioos:station:wmo:42046:1,2009-04-02T09:30:00Z,27.8903,-94.0367,4.0,5.087022705,125.7213191,8.9,'11111222,11111222,11111222' 
TABS,ioos:station:wmo:42046:1,2009-04-02T10:00:00Z,27.8903,-94.0367,4.0,7.764669987,127.6229139,9.9,'11111222,11111222,11111222' 
TABS,ioos:station:wmo:42046:1,2009-04-02T10:30:00Z,27.8903,-94.0367,4.0,5.12652904,135.0793441,6.59,'11111222,11111222,11111222' 
TABS,ioos:station:wmo:42046:1,2009-04-02T11:00:00Z,27.8903,-94.0367,4.0,8.418467794,129.9888958,10.67,'11111222,11111222,11111222' 
TABS,ioos:station:wmo:42046:1,2009-04-02T11:30:00Z,27.8903,-94.0367,4.0,8.298319107,146.2527729,10.92,'11111222,11111222,11111222' 
TABS,ioos:station:wmo:42046:1,2009-04-02T12:00:00Z,27.8903,-94.0367,4.0,11.17470805,141.8689909,15.02,'11111222,11111222,11111222' 
TABS,ioos:station:wmo:42046:1,2009-04-02T12:30:00Z,27.8903,-94.0367,4.0,11.35355891,157.9083466,14.16,'11111222,11111222,11111222' 
TABS,ioos:station:wmo:42046:1,2009-04-02T13:00:00Z,27.8903,-94.0367,4.0,10.70727323,172.2712128,13.58,'11111222,11111222,11111222' 
TABS,ioos:station:wmo:42046:1,2009-04-02T13:30:00Z,27.8903,-94.0367,4.0,9.467417811,175.638648,12.31,'11111222,11111222,11111222' 
TABS,ioos:station:wmo:42046:1,2009-04-02T14:00:00Z,27.8903,-94.0367,4.0,8.700281605,180.4612,10.36,'11111222,11111222,11111222' 
TABS,ioos:station:wmo:42046:1,2009-04-02T14:30:00Z,27.8903,-94.0367,4.0,9.251172899,190.0225177,11.57,'11111222,11111222,11111222' 
TABS,ioos:station:wmo:42046:1,2009-04-02T15:00:00Z,27.8903,-94.0367,4.0,8.224901215,207.2817472,10.2,'11111222,11111222,11111222' 
TABS,ioos:station:wmo:42046:1,2009-04-02T15:30:00Z,27.8903,-94.0367,4.0,6.7293759,204.7752931,8.41,'11111222,11111222,11111222' 
TABS,ioos:station:wmo:42046:1,2009-04-02T16:00:00Z,27.8903,-94.0367,4.0,7.280309059,210.5454886,9.25,'11111222,11111222,11111222' 
TABS,ioos:station:wmo:42046:1,2009-04-02T16:30:00Z,27.8903,-94.0367,4.0,7.932515364,221.729625,10.34,'11111222,11111222,11111222' 
TABS,ioos:station:wmo:42046:1,2009-04-02T17:00:00Z,27.8903,-94.0367,4.0,7.227205546,234.1767128,9.06,'11111222,11111222,11111222' 
TABS,ioos:station:wmo:42046:1,2009-04-02T17:30:00Z,27.8903,-94.0367,4.0,9.473737383,266.91411,12.27,'11111222,11111222,11111222' 
TABS,ioos:station:wmo:42046:1,2009-04-02T18:00:00Z,27.8903,-94.0367,4.0,7.419710237,297.1866172,9.11,'11111222,11111222,11111222' 
TABS,ioos:station:wmo:42046:1,2009-04-02T18:30:00Z,27.8903,-94.0367,4.0,7.004034552,294.3694262,9.13,'11111222,11111222,11111222' 
TABS,ioos:station:wmo:42046:1,2009-04-02T19:00:00Z,27.8903,-94.0367,4.0,6.906699646,290.2452968,8.77,'11111222,11111222,11111222' 
TABS,ioos:station:wmo:42046:1,2009-04-02T19:30:00Z,27.8903,-94.0367,4.0,7.663641432,286.4485697,9.33,'11111222,11111222,11111222' 
TABS,ioos:station:wmo:42046:1,2009-04-02T20:00:00Z,27.8903,-94.0367,4.0,7.857563236,285.274269,10.11,'11111222,11111222,11111222' 
TABS,ioos:station:wmo:42046:1,2009-04-02T20:30:00Z,27.8903,-94.0367,4.0,8.739302032,284.7835719,10.96,'11111222,11111222,11111222' 
TABS,ioos:station:wmo:42046:1,2009-04-02T21:00:00Z,27.8903,-94.0367,4.0,9.172769484,284.2634529,11.45,'11111222,11111222,11111222' 
TABS,ioos:station:wmo:42046:1,2009-04-02T21:30:00Z,27.8903,-94.0367,4.0,9.63880698,286.3291202,11.94,'11111222,11111222,11111222' 
TABS,ioos:station:wmo:42046:1,2009-04-02T22:00:00Z,27.8903,-94.0367,4.0,8.763435399,291.2064474,11.5,'11111222,11111222,11111222' 
TABS,ioos:station:wmo:42046:1,2009-04-02T22:30:00Z,27.8903,-94.0367,4.0,9.025042936,290.5634275,11.62,'11111222,11111222,11111222' 
TABS,ioos:station:wmo:42046:1,2009-04-02T23:00:00Z,27.8903,-94.0367,4.0,8.63495802,292.1093966,11.39,'11111222,11111222,11111222' 
TABS,ioos:station:wmo:42046:1,2009-04-02T23:30:00Z,27.8903,-94.0367,4.0,8.438435874,294.803536,11.06,'11111222,11111222,11111222' 
TABS,ioos:station:wmo:42046:1,2009-04-03T00:00:00Z,27.8903,-94.0367,4.0,7.86288751,303.5889383,9.74,'11111222,11111222,11111222' 
TABS,ioos:station:wmo:42046:1,2009-04-03T00:30:00Z,27.8903,-94.0367,4.0,7.035801305,315.2878102,8.86,'11111222,11111222,11111222' 
TABS,ioos:station:wmo:42046:1,2009-04-03T01:00:00Z,27.8903,-94.0367,4.0,7.504831777,313.5421675,9.53,'11111222,11111222,11111222' 
TABS,ioos:station:wmo:42046:1,2009-04-03T01:30:00Z,27.8903,-94.0367,4.0,7.184184018,317.5384334,8.83,'11111222,11111222,11111222' 
TABS,ioos:station:wmo:42046:1,2009-04-03T02:00:00Z,27.8903,-94.0367,4.0,7.27303238,313.1055931,9.22,'11111222,11111222,11111222' 
TABS,ioos:station:wmo:42046:1,2009-04-03T02:30:00Z,27.8903,-94.0367,4.0,6.815585081,311.4309847,8.3,'11111222,11111222,11111222' 
TABS,ioos:station:wmo:42046:1,2009-04-03T03:00:00Z,27.8903,-94.0367,4.0,8.854343567,316.0065837,11.47,'11111222,11111222,11111222' 
TABS,ioos:station:wmo:42046:1,2009-04-03T03:30:00Z,27.8903,-94.0367,4.0,10.1647725,317.6314082,12.86,'11111222,11111222,11111222' 
TABS,ioos:station:wmo:42046:1,2009-04-03T04:00:00Z,27.8903,-94.0367,4.0,9.923356287,325.0125813,12.24,'11111222,11111222,11111222' 
TABS,ioos:station:wmo:42046:1,2009-04-03T04:30:00Z,27.8903,-94.0367,4.0,10.01663616,327.3093188,13.17,'11111222,11111222,11111222' 
TABS,ioos:station:wmo:42046:1,2009-04-03T05:00:00Z,27.8903,-94.0367,4.0,9.766642207,323.7870364,12.95,'11111222,11111222,11111222' 
TABS,ioos:station:wmo:42046:1,2009-04-03T05:30:00Z,27.8903,-94.0367,4.0,9.43250762,334.1682751,11.56,'11111222,11111222,11111222' 
TABS,ioos:station:wmo:42046:1,2009-04-03T06:00:00Z,27.8903,-94.0367,4.0,10.19475355,337.0816779,12.36,'11111222,11111222,11111222' 
TABS,ioos:station:wmo:42046:1,2009-04-03T06:30:00Z,27.8903,-94.0367,4.0,9.323046712,336.3493533,12.88,'11111222,11111222,11111222' 
TABS,ioos:station:wmo:42046:1,2009-04-03T07:00:00Z,27.8903,-94.0367,4.0,10.19718098,338.8453404,13.27,'11111222,11111222,11111222' 
TABS,ioos:station:wmo:42046:1,2009-04-03T07:30:00Z,27.8903,-94.0367,4.0,9.268144367,337.9458772,11.81,'11111222,11111222,11111222' 
TABS,ioos:station:wmo:42046:1,2009-04-03T08:00:00Z,27.8903,-94.0367,4.0,8.804118354,351.1794306,11.47,'11111222,11111222,11111222' 
TABS,ioos:station:wmo:42046:1,2009-04-03T08:30:00Z,27.8903,-94.0367,4.0,9.432083545,354.5853867,11.87,'11111222,11111222,11111222' 
TABS,ioos:station:wmo:42046:1,2009-04-03T09:00:00Z,27.8903,-94.0367,4.0,9.037195361,6.991104874,12.03,'11111222,11111222,11111222' 
TABS,ioos:station:wmo:42046:1,2009-04-03T09:30:00Z,27.8903,-94.0367,4.0,8.94013982,13.58522986,11.79,'11111222,11111222,11111222' 
TABS,ioos:station:wmo:42046:1,2009-04-03T10:00:00Z,27.8903,-94.0367,4.0,7.786886412,8.566918005,10.06,'11111222,11111222,11111222' 
TABS,ioos:station:wmo:42046:1,2009-04-03T10:30:00Z,27.8903,-94.0367,4.0,7.888073276,9.044142139,10.57,'11111222,11111222,11111222' 
TABS,ioos:station:wmo:42046:1,2009-04-03T11:00:00Z,27.8903,-94.0367,4.0,6.573842103,11.13876634,8.76,'11111222,11111222,11111222' 
TABS,ioos:station:wmo:42046:1,2009-04-03T11:30:00Z,27.8903,-94.0367,4.0,6.631327167,8.410911331,8.94,'11111222,11111222,11111222' 
TABS,ioos:station:wmo:42046:1,2009-04-03T12:00:00Z,27.8903,-94.0367,4.0,5.749052096,18.2456014,7.79,'11111222,11111222,11111222' 
TABS,ioos:station:wmo:42046:1,2009-04-03T12:30:00Z,27.8903,-94.0367,4.0,4.64536328,20.5413509,6.74,'11111222,11111222,11111222' 
TABS,ioos:station:wmo:42046:1,2009-04-03T13:00:00Z,27.8903,-94.0367,4.0,3.853011809,15.65918296,5.48,'11111222,11111222,11111222' 
TABS,ioos:station:wmo:42046:1,2009-04-03T13:30:00Z,27.8903,-94.0367,4.0,4.069643719,26.5647786,6.35,'11111222,11111222,11111222' 
TABS,ioos:station:wmo:42046:1,2009-04-03T14:00:00Z,27.8903,-94.0367,4.0,3.78737376,32.05320507,5.74,'11111222,11111222,11111222' 
TABS,ioos:station:wmo:42046:1,2009-04-03T14:30:00Z,27.8903,-94.0367,4.0,3.751586331,50.6242992,5.23,'11111222,11111222,11111222' 
TABS,ioos:station:wmo:42046:1,2009-04-03T15:00:00Z,27.8903,-94.0367,4.0,3.471959101,44.64961344,4.75,'11111222,11111222,11111222' 
TABS,ioos:station:wmo:42046:1,2009-04-03T15:30:00Z,27.8903,-94.0367,4.0,3.380532502,54.14674331,5.14,'11111222,11111222,11111222' 
TABS,ioos:station:wmo:42046:1,2009-04-03T16:00:00Z,27.8903,-94.0367,4.0,3.412169398,53.70069013,5.11,'11111222,11111222,11111222' 
TABS,ioos:station:wmo:42046:1,2009-04-03T16:30:00Z,27.8903,-94.0367,4.0,2.951779125,66.64811886,4.39,'11111222,11111222,11111222' 
TABS,ioos:station:wmo:42046:1,2009-04-03T17:00:00Z,27.8903,-94.0367,4.0,2.813414296,76.01276122,4.26,'11111222,11111222,11111222' 
TABS,ioos:station:wmo:42046:1,2009-04-03T17:30:00Z,27.8903,-94.0367,4.0,2.778488798,67.12596738,4.05,'11111222,11111222,11111222' 
TABS,ioos:station:wmo:42046:1,2009-04-03T18:00:00Z,27.8903,-94.0367,4.0,2.776508599,93.92430106,3.98,'11111222,11111222,11111222' 
TABS,ioos:station:wmo:42046:1,2009-04-03T18:30:00Z,27.8903,-94.0367,4.0,2.066930091,67.52902963,3.51,'11111222,11111222,11111222' 
TABS,ioos:station:wmo:42046:1,2009-04-03T19:00:00Z,27.8903,-94.0367,4.0,1.61993827,101.0328684,3.06,'11111222,11111222,11111222' 
TABS,ioos:station:wmo:42046:1,2009-04-03T19:30:00Z,27.8903,-94.0367,4.0,1.705754965,94.70826215,2.79,'11111222,11111222,11111222' 
TABS,ioos:station:wmo:42046:1,2009-04-03T20:00:00Z,27.8903,-94.0367,4.0,1.331240023,131.9555444,2.88,'11111222,11111222,11111222' 
TABS,ioos:station:wmo:42046:1,2009-04-03T20:30:00Z,27.8903,-94.0367,4.0,1.587104281,84.57637317,2.83,'11111222,11111222,11111222' 
TABS,ioos:station:wmo:42046:1,2009-04-03T21:00:00Z,27.8903,-94.0367,4.0,2.584356787,80.6466217,4.68,'11111222,11111222,11111222' 
TABS,ioos:station:wmo:42046:1,2009-04-03T21:30:00Z,27.8903,-94.0367,4.0,2.909312634,105.7564178,3.9,'11111222,11111222,11111222' 
TABS,ioos:station:wmo:42046:1,2009-04-03T22:00:00Z,27.8903,-94.0367,4.0,3.770039788,128.7550776,5.38,'11111222,11111222,11111222' 
TABS,ioos:station:wmo:42046:1,2009-04-03T22:30:00Z,27.8903,-94.0367,4.0,3.684901627,129.8258071,5.52,'11111222,11111222,11111222' 
TABS,ioos:station:wmo:42046:1,2009-04-03T23:00:00Z,27.8903,-94.0367,4.0,3.363599263,139.8239626,4.91,'11111222,11111222,11111222' 
TABS,ioos:station:wmo:42046:1,2009-04-03T23:30:00Z,27.8903,-94.0367,4.0,3.290243152,137.0940627,4.71,'11111222,11111222,11111222' 
TABS,ioos:station:wmo:42046:1,2009-04-04T00:00:00Z,27.8903,-94.0367,4.0,3.897088657,147.0442183,5.35,'11111222,11111222,11111222' 
TABS,ioos:station:wmo:42046:1,2009-04-04T00:30:00Z,27.8903,-94.0367,4.0,4.207517083,140.7875451,5.81,'11111222,11111222,11111222' 
TABS,ioos:station:wmo:42046:1,2009-04-04T01:00:00Z,27.8903,-94.0367,4.0,4.858075751,125.1952604,6.35,'11111222,11111222,11111222' 
TABS,ioos:station:wmo:42046:1,2009-04-04T01:30:00Z,27.8903,-94.0367,4.0,4.739419796,131.4933096,5.81,'11111222,11111222,11111222' 
TABS,ioos:station:wmo:42046:1,2009-04-04T02:00:00Z,27.8903,-94.0367,4.0,4.950353523,130.576513,6.28,'11111222,11111222,11111222' 
TABS,ioos:station:wmo:42046:1,2009-04-04T02:30:00Z,27.8903,-94.0367,4.0,4.900295909,134.7522841,6.53,'11111222,11111222,11111222' 
TABS,ioos:station:wmo:42046:1,2009-04-04T03:00:00Z,27.8903,-94.0367,4.0,5.222882346,138.8040618,6.57,'11111222,11111222,11111222' 
TABS,ioos:station:wmo:42046:1,2009-04-04T03:30:00Z,27.8903,-94.0367,4.0,5.100980298,142.0070989,6.45,'11111222,11111222,11111222' 
TABS,ioos:station:wmo:42046:1,2009-04-04T04:00:00Z,27.8903,-94.0367,4.0,4.994076491,144.7826998,6.7,'11111222,11111222,11111222' 
TABS,ioos:station:wmo:42046:1,2009-04-04T04:30:00Z,27.8903,-94.0367,4.0,4.582073766,142.8052854,5.67,'11111222,11111222,11111222' 
TABS,ioos:station:wmo:42046:1,2009-04-04T05:00:00Z,27.8903,-94.0367,4.0,5.0,143.130399,6.59,'11111222,11111222,11111222' 
TABS,ioos:station:wmo:42046:1,2009-04-04T05:30:00Z,27.8903,-94.0367,4.0,5.800215513,143.6243148,7.73,'11111222,11111222,11111222' 
TABS,ioos:station:wmo:42046:1,2009-04-04T06:00:00Z,27.8903,-94.0367,4.0,6.673709613,145.5006115,8.06,'11111222,11111222,11111222' 
TABS,ioos:station:wmo:42046:1,2009-04-04T06:30:00Z,27.8903,-94.0367,4.0,7.355032291,139.4666062,9.16,'11111222,11111222,11111222' 
TABS,ioos:station:wmo:42046:1,2009-04-04T07:00:00Z,27.8903,-94.0367,4.0,6.872786917,143.9974381,9.0,'11111222,11111222,11111222' 
TABS,ioos:station:wmo:42046:1,2009-04-04T07:30:00Z,27.8903,-94.0367,4.0,6.790029455,144.5312803,8.84,'11111222,11111222,11111222' 
TABS,ioos:station:wmo:42046:1,2009-04-04T08:00:00Z,27.8903,-94.0367,4.0,6.799154359,147.4321472,8.69,'11111222,11111222,11111222' 
TABS,ioos:station:wmo:42046:1,2009-04-04T08:30:00Z,27.8903,-94.0367,4.0,6.712711822,151.3353218,8.47,'11111222,11111222,11111222' 
TABS,ioos:station:wmo:42046:1,2009-04-04T09:00:00Z,27.8903,-94.0367,4.0,6.220651091,149.6841749,8.4,'11111222,11111222,11111222' 
TABS,ioos:station:wmo:42046:1,2009-04-04T09:30:00Z,27.8903,-94.0367,4.0,6.562453809,148.078194,8.14,'11111222,11111222,11111222' 
TABS,ioos:station:wmo:42046:1,2009-04-04T10:00:00Z,27.8903,-94.0367,4.0,7.093264411,149.3135824,8.74,'11111222,11111222,11111222' 
TABS,ioos:station:wmo:42046:1,2009-04-04T10:30:00Z,27.8903,-94.0367,4.0,7.383258088,148.5707183,9.59,'11111222,11111222,11111222' 
TABS,ioos:station:wmo:42046:1,2009-04-04T11:00:00Z,27.8903,-94.0367,4.0,7.447482796,147.05705,9.32,'11111222,11111222,11111222' 
TABS,ioos:station:wmo:42046:1,2009-04-04T11:30:00Z,27.8903,-94.0367,4.0,7.499633324,146.034764,9.56,'11111222,11111222,11111222' 
TABS,ioos:station:wmo:42046:1,2009-04-04T12:00:00Z,27.8903,-94.0367,4.0,7.908887406,145.1447748,10.44,'11111222,11111222,11111222' 
TABS,ioos:station:wmo:42046:1,2009-04-04T12:30:00Z,27.8903,-94.0367,4.0,8.672773489,146.4751272,10.59,'11111222,11111222,11111222' 
TABS,ioos:station:wmo:42046:1,2009-04-04T13:00:00Z,27.8903,-94.0367,4.0,8.670178776,145.9069961,11.21,'11111222,11111222,11111222' 
TABS,ioos:station:wmo:42046:1,2009-04-04T13:30:00Z,27.8903,-94.0367,4.0,8.511010516,147.5239309,10.69,'11111222,11111222,11111222' 
TABS,ioos:station:wmo:42046:1,2009-04-04T14:00:00Z,27.8903,-94.0367,4.0,8.928661714,148.4642493,11.32,'11111222,11111222,11111222' 
TABS,ioos:station:wmo:42046:1,2009-04-04T14:30:00Z,27.8903,-94.0367,4.0,8.972385413,146.5935982,11.21,'11111222,11111222,11111222' 
TABS,ioos:station:wmo:42046:1,2009-04-04T15:00:00Z,27.8903,-94.0367,4.0,8.528774824,147.8382403,10.71,'11111222,11111222,11111222' 
TABS,ioos:station:wmo:42046:1,2009-04-04T15:30:00Z,27.8903,-94.0367,4.0,8.656142328,151.125687,10.99,'11111222,11111222,11111222' 
TABS,ioos:station:wmo:42046:1,2009-04-04T16:00:00Z,27.8903,-94.0367,4.0,9.124499986,152.4523043,11.71,'11111222,11111222,11111222' 
TABS,ioos:station:wmo:42046:1,2009-04-04T16:30:00Z,27.8903,-94.0367,4.0,8.660190529,154.7075911,10.94,'11111222,11111222,11111222' 
TABS,ioos:station:wmo:42046:1,2009-04-04T17:00:00Z,27.8903,-94.0367,4.0,8.403868157,157.2492873,10.8,'11111222,11111222,11111222' 
TABS,ioos:station:wmo:42046:1,2009-04-04T17:30:00Z,27.8903,-94.0367,4.0,7.839247413,157.2623328,9.38,'11111222,11111222,11111222' 
TABS,ioos:station:wmo:42046:1,2009-04-04T18:00:00Z,27.8903,-94.0367,4.0,7.538468014,164.3784936,9.44,'11111222,11111222,11111222' 
TABS,ioos:station:wmo:42046:1,2009-04-04T18:30:00Z,27.8903,-94.0367,4.0,6.872626863,164.7305037,8.63,'11111222,11111222,11111222' 